Wager Bay, Nunavut

10:21 AM MST on December 15, 2017 (GMT -0700)
Wager Bay

Weather History for CXWB - October, 2012

Change the Weather History Date:

Sunday, October 28, 2012

  Actual Average Record
Temperature  
Mean Temperature 10 °F -  
Max Temperature 17 °F - - ()
Min Temperature 2 °F - - ()
Degree Days  
Heating Degree Days 55    
Moisture  
Dew Point 5 °F    
Average Humidity 73    
Maximum Humidity 79    
Minimum Humidity 58    
Precipitation  
Precipitation 0.00 in - - ()
Sea Level Pressure  
Sea Level Pressure 30.12 in    
Wind  
Wind Speed 14 mph ()    
Max Wind Speed 22 mph    
Max Gust Speed 29 mph    
T = Trace of Precipitation, MM = Missing Value Source: Averaged Metar Reports

Daily Weather History Graph

Daily Weather History Graph

Search for Another Location

Airport or City:

Trip Planner

Search our weather history database for the weather conditions in past years. The results will help you decide how hot, cold, wet, or windy it might be!

Date:

Astronomy

Oct. 28, 2012 Rise Set
Actual Time 7:50 AM MDT 3:50 PM MDT
Civil Twilight 6:53 AM MDT 4:47 PM MDT
Nautical Twilight 5:52 AM MDT 5:47 PM MDT
Astronomical Twilight 4:53 AM MDT 6:46 PM MDT
Moon 3:10 PM MDT (10/28) 6:34 AM MDT (10/28)
Length of Visible Light 9h 53m
Length of Day
7h 59m
Waxing Gibbous, 99% of the Moon is Illuminated
Oct 28
Waxing Gibbous
Oct 29
Full
Nov 6
Last Quarter
Nov 13
New
Nov 20
First Quarter

Hourly Weather History & Observations

Time (MDT) Temp. Windchill Dew Point Humidity Pressure Visibility Wind Dir Wind Speed Gust Speed Precip Events Conditions
12:00 AM 18 °F - 12 °F 67% 29.80 in - WNW 21.9 mph - -  
12:00 AM 18.3 °F 1.4 °F 11.8 °F 76% 29.80 in - WNW 21.9 mph 28.8 mph N/A   Unknown
1:00 AM 17.8 °F 1.1 °F 11.1 °F 75% 29.84 in - WNW 20.7 mph - N/A   Unknown
2:00 AM 16.7 °F 2.6 °F 10.4 °F 76% 29.88 in - NW 13.8 mph - N/A   Unknown
3:00 AM 16.3 °F 1.0 °F 10.2 °F 77% 29.92 in - NW 16.1 mph - N/A   Unknown
4:00 AM 17.6 °F 2.2 °F 11.5 °F 77% 29.96 in - NW 17.3 mph - N/A   Unknown
5:00 AM 17.2 °F 2.2 °F 11.5 °F 78% 29.99 in - NW 16.1 mph - N/A   Unknown
6:00 AM 17 °F - 11 °F 69% 30.02 in - NW 17.3 mph - -  
6:00 AM 17.1 °F 1.5 °F 11.3 °F 78% 30.02 in - NW 17.3 mph - N/A   Unknown
7:00 AM 16.5 °F 0.8 °F 10.6 °F 77% 30.05 in - NW 17.3 mph - N/A   Unknown
8:00 AM 15.3 °F -1.3 °F 8.8 °F 76% 30.08 in - NW 18.4 mph - N/A   Unknown
9:00 AM 13.6 °F -3.5 °F 6.8 °F 74% 30.12 in - NW 18.4 mph - N/A   Unknown
10:00 AM 11.5 °F -5.2 °F 4.3 °F 73% 30.14 in - NW 16.1 mph - N/A   Unknown
11:00 AM 11.7 °F -5.0 °F 3.4 °F 69% 30.16 in - NW 16.1 mph - N/A   Unknown
12:00 PM 12 °F - 4 °F 58% 30.18 in - NNW 16.1 mph - -  
12:00 PM 12.0 °F -4.5 °F 3.9 °F 70% 30.18 in - NNW 16.1 mph - N/A   Unknown
1:00 PM 12.9 °F -2.8 °F 4.1 °F 68% 30.19 in - NNW 15.0 mph - N/A   Unknown
2:00 PM 10.6 °F -3.8 °F 1.8 °F 68% 30.22 in - NNW 11.5 mph - N/A   Unknown
3:00 PM 9.7 °F -2.4 °F 1.4 °F 69% 30.24 in - NNW 8.1 mph - N/A   Unknown
4:00 PM 5.2 °F -6.7 °F -1.7 °F 73% 30.26 in - North 6.9 mph - N/A   Unknown
5:00 PM 5.5 °F -10.2 °F -0.9 °F 75% 30.28 in - NNW 11.5 mph - N/A   Unknown
6:00 PM 5 °F - -1 °F 67% 30.29 in - NNW 11.5 mph - -  
6:00 PM 5.2 °F -10.6 °F -0.8 °F 76% 30.29 in - NNW 11.5 mph - N/A   Unknown
7:00 PM 4.5 °F -10.7 °F -1.1 °F 78% 30.32 in - NNW 10.4 mph - N/A   Unknown
8:00 PM 3.4 °F -10.0 °F -1.8 °F 79% 30.32 in - NNW 8.1 mph - N/A   Unknown
9:00 PM 4.8 °F -4.3 °F -1.5 °F 75% 30.34 in - NNE 4.6 mph - N/A   Unknown
10:00 PM 2.5 °F - -2.7 °F 79% 30.35 in - North 2.3 mph - N/A   Unknown